Caldwell, ID

11:11 PM MST on February 26, 2017 (GMT -0700)
Caldwell Industrial

Weather History for KEUL - December, 2012

Change the Weather History Date:

Wednesday, December 26, 2012

  Actual Average (KBOI) Record (KBOI)
Temperature  
Mean Temperature 29 °F -  
Max Temperature 30 °F 35 °F 58 °F (1892)
Min Temperature 28 °F 21 °F -18 °F (1924)
Degree Days  
Heating Degree Days 36    
Moisture  
Dew Point 23 °F    
Average Humidity 78    
Maximum Humidity 86    
Minimum Humidity 69    
Precipitation  
Precipitation 0.01 in - - ()
Sea Level Pressure  
Sea Level Pressure 29.81 in    
Wind  
Wind Speed 9 mph (ENE)    
Max Wind Speed 16 mph    
Max Gust Speed -    
Visibility 6 miles    
Events      
Averages and records for this station are not official NWS values.
T = Trace of Precipitation, MM = Missing Value Source: NWS Daily Summary

Daily Weather History Graph

Daily Weather History Graph

Search for Another Location

Airport or City:

Trip Planner

Search our weather history database for the weather conditions in past years. The results will help you decide how hot, cold, wet, or windy it might be!

Date:

Astronomy

Dec. 26, 2012 Rise Set
Actual Time 8:19 AM MST 5:15 PM MST
Civil Twilight 7:46 AM MST 5:48 PM MST
Nautical Twilight 7:09 AM MST 6:25 PM MST
Astronomical Twilight 6:35 AM MST 7:00 PM MST
Moon 4:13 PM MST (12/26) 6:45 AM MST (12/26)
Length of Visible Light 10h 02m
Length of Day
8h 56m
Waxing Gibbous, 98% of the Moon is Illuminated
Dec 26
Waxing Gibbous
Dec 28
Full
Jan 4
Last Quarter
Jan 11
New
Jan 18
First Quarter

Hourly Weather History & Observations

Time (MST) Temp. Windchill Dew Point Humidity Pressure Visibility Wind Dir Wind Speed Gust Speed Precip Events Conditions
12:15 AM 28.4 °F 17.0 °F 21.2 °F 74% 29.87 in 10.0 mi SSE 15.0 mph - N/A   Overcast
12:35 AM 28.4 °F 17.0 °F 21.2 °F 74% 29.86 in 10.0 mi SSE 15.0 mph - N/A   Mostly Cloudy
12:55 AM 28.4 °F 17.0 °F 21.2 °F 74% 29.85 in 10.0 mi SSE 15.0 mph - N/A   Overcast
1:15 AM 28.4 °F 18.5 °F 21.2 °F 74% 29.84 in 10.0 mi SSE 11.5 mph - N/A   Mostly Cloudy
1:35 AM 28.4 °F 18.0 °F 21.2 °F 74% 29.83 in 10.0 mi SSE 12.7 mph - N/A   Mostly Cloudy
1:55 AM 28.4 °F 17.0 °F 21.2 °F 74% 29.82 in 10.0 mi SSE 15.0 mph - N/A   Overcast
2:35 AM 28.4 °F 16.6 °F 21.2 °F 74% 29.81 in 10.0 mi SSE 16.1 mph - N/A   Overcast
2:55 AM 28.4 °F 16.6 °F 21.2 °F 74% 29.81 in 10.0 mi SSE 16.1 mph - N/A   Overcast
3:15 AM 28.4 °F 18.0 °F 21.2 °F 74% 29.80 in 10.0 mi SSE 12.7 mph - N/A   Overcast
3:35 AM 28.4 °F 17.5 °F 21.2 °F 74% 29.80 in 10.0 mi SSE 13.8 mph - N/A   Overcast
3:55 AM 28.4 °F 17.5 °F 21.2 °F 74% 29.79 in 10.0 mi SSE 13.8 mph - N/A   Overcast
4:15 AM 28.4 °F 18.0 °F 21.2 °F 74% 29.79 in 10.0 mi SSE 12.7 mph - N/A   Overcast
4:35 AM 30.2 °F 20.2 °F 21.2 °F 69% 29.78 in 10.0 mi SSE 12.7 mph - N/A   Overcast
4:55 AM 30.2 °F 20.2 °F 21.2 °F 69% 29.78 in 10.0 mi SSE 12.7 mph - N/A   Overcast
5:15 AM 28.4 °F 20.4 °F 21.2 °F 74% 29.77 in 10.0 mi ESE 8.1 mph - N/A   Overcast
5:35 AM 28.4 °F 22.2 °F 21.2 °F 74% 29.77 in 10.0 mi ESE 5.8 mph - N/A   Overcast
5:55 AM 28.4 °F 23.3 °F 21.2 °F 74% 29.77 in 10.0 mi East 4.6 mph - N/A   Overcast
6:15 AM 28.4 °F 22.2 °F 21.2 °F 74% 29.77 in 10.0 mi East 5.8 mph - N/A   Overcast
6:35 AM 28.4 °F 22.2 °F 21.2 °F 74% 29.77 in 10.0 mi East 5.8 mph - N/A   Overcast
6:55 AM 28.4 °F 24.6 °F 21.2 °F 74% 29.77 in 10.0 mi East 3.5 mph - N/A   Overcast
7:15 AM 28.4 °F 22.2 °F 21.2 °F 74% 29.77 in 9.0 mi East 5.8 mph - N/A   Overcast
7:35 AM 28.4 °F 22.2 °F 21.2 °F 74% 29.77 in 10.0 mi East 5.8 mph - N/A   Overcast
7:55 AM 28.4 °F 22.2 °F 21.2 °F 74% 29.77 in 6.0 mi East 5.8 mph - N/A   Overcast
8:15 AM 28.4 °F 23.3 °F 21.2 °F 74% 29.77 in 2.0 mi East 4.6 mph - N/A   Overcast
8:35 AM 28.4 °F 23.3 °F 21.2 °F 74% 29.77 in 1.5 mi East 4.6 mph - N/A   Overcast
8:55 AM 28.4 °F 22.2 °F 21.2 °F 74% 29.77 in 2.5 mi East 5.8 mph - N/A   Overcast
9:15 AM 28.4 °F 23.3 °F 21.2 °F 74% 29.78 in 2.0 mi East 4.6 mph - N/A   Overcast
9:35 AM 28.4 °F 22.2 °F 21.2 °F 74% 29.78 in 3.0 mi East 5.8 mph - N/A   Overcast
9:55 AM 28.4 °F 24.6 °F 23.0 °F 80% 29.79 in 5.0 mi ENE 3.5 mph - N/A   Overcast
10:15 AM 28.4 °F 23.3 °F 23.0 °F 80% 29.80 in 3.0 mi East 4.6 mph - N/A   Overcast
10:35 AM 28.4 °F 24.6 °F 23.0 °F 80% 29.80 in 7.0 mi ESE 3.5 mph - N/A   Overcast
10:55 AM 30.2 °F 26.7 °F 24.8 °F 80% 29.81 in 5.0 mi ENE 3.5 mph - N/A   Overcast
11:15 AM 30.2 °F 26.7 °F 23.0 °F 75% 29.81 in 5.0 mi East 3.5 mph - N/A   Overcast
11:35 AM 30.2 °F - 23.0 °F 75% 29.80 in 6.0 mi Calm Calm - N/A   Overcast
11:55 AM 30.2 °F - 23.0 °F 75% 29.80 in 10.0 mi Calm Calm - N/A   Overcast
12:15 PM 30.2 °F - 24.8 °F 80% 29.79 in 10.0 mi Calm Calm - N/A   Overcast
12:35 PM 30.2 °F - 23.0 °F 75% 29.79 in 7.0 mi Calm Calm - N/A   Overcast
12:55 PM 30.2 °F - 24.8 °F 80% 29.78 in 1.2 mi Calm Calm - N/A   Overcast
1:15 PM 30.2 °F - 24.8 °F 80% 29.78 in 1.0 mi Calm Calm - N/A   Overcast
1:35 PM 30.2 °F 26.7 °F 24.8 °F 80% 29.78 in 1.8 mi NNE 3.5 mph - 0.01 in   Overcast
1:55 PM 30.2 °F 26.7 °F 24.8 °F 80% 29.78 in 8.0 mi North 3.5 mph - 0.01 in   Overcast
2:15 PM 30.2 °F 26.7 °F 24.8 °F 80% 29.78 in 7.0 mi NNW 3.5 mph - N/A   Overcast
2:35 PM 30.2 °F - 24.8 °F 80% 29.78 in 10.0 mi Calm Calm - N/A   Overcast
2:55 PM 30.2 °F 26.7 °F 24.8 °F 80% 29.78 in 9.0 mi North 3.5 mph - N/A   Overcast
3:15 PM 30.2 °F 25.4 °F 24.8 °F 80% 29.79 in 6.0 mi NW 4.6 mph - N/A   Overcast
3:35 PM 30.2 °F 25.4 °F 24.8 °F 80% 29.80 in 8.0 mi NNW 4.6 mph - N/A   Overcast
3:55 PM 30.2 °F 24.3 °F 24.8 °F 80% 29.80 in 2.5 mi NNW 5.8 mph - N/A   Overcast
4:15 PM 30.2 °F 24.3 °F 24.8 °F 80% 29.81 in 2.5 mi NW 5.8 mph - N/A   Overcast
4:35 PM 30.2 °F 24.3 °F 24.8 °F 80% 29.82 in 3.0 mi WNW 5.8 mph - N/A   Overcast
4:55 PM 30.2 °F 24.3 °F 24.8 °F 80% 29.82 in 2.5 mi WNW 5.8 mph - N/A   Overcast
5:15 PM 30.2 °F 24.3 °F 24.8 °F 80% 29.82 in 3.0 mi WNW 5.8 mph - N/A   Overcast
5:35 PM 30.2 °F 24.3 °F 24.8 °F 80% 29.83 in 3.0 mi WNW 5.8 mph - N/A   Overcast
6:15 PM 30.2 °F 24.3 °F 24.8 °F 80% 29.84 in 5.0 mi WNW 5.8 mph - N/A   Mostly Cloudy
6:35 PM 30.2 °F 25.4 °F 24.8 °F 80% 29.84 in 5.0 mi WNW 4.6 mph - N/A   Overcast
6:55 PM 28.4 °F 22.2 °F 24.8 °F 86% 29.85 in 5.0 mi NW 5.8 mph - N/A   Overcast
7:35 PM 28.4 °F 22.2 °F 23.0 °F 80% 29.85 in 5.0 mi NW 5.8 mph - N/A   Overcast
7:55 PM 28.4 °F 22.2 °F 24.8 °F 86% 29.86 in 4.0 mi NW 5.8 mph - N/A   Overcast
8:15 PM 28.4 °F 23.3 °F 24.8 °F 86% 29.86 in 3.0 mi NW 4.6 mph - N/A   Overcast
8:55 PM 28.4 °F 23.3 °F 23.0 °F 80% 29.87 in 3.0 mi NW 4.6 mph - N/A   Overcast
9:15 PM 28.4 °F 23.3 °F 24.8 °F 86% 29.87 in 3.0 mi NNW 4.6 mph - N/A   Overcast
9:35 PM 28.4 °F 24.6 °F 24.8 °F 86% 29.87 in 2.5 mi NNW 3.5 mph - N/A   Overcast
9:55 PM 28.4 °F - 24.8 °F 86% 29.88 in 2.5 mi Calm Calm - N/A   Overcast
10:15 PM 28.4 °F - 24.8 °F 86% 29.88 in 2.0 mi Calm Calm - N/A   Overcast
10:35 PM 28.4 °F - 23.0 °F 80% 29.89 in 2.0 mi Calm Calm - N/A   Overcast
10:55 PM 28.4 °F - 23.0 °F 80% 29.89 in 2.5 mi Calm Calm - N/A   Overcast
11:15 PM 28.4 °F 24.6 °F 23.0 °F 80% 29.89 in 2.5 mi NW 3.5 mph - N/A   Overcast
11:35 PM 28.4 °F 24.6 °F 23.0 °F 80% 29.90 in 2.0 mi NW 3.5 mph - N/A   Overcast
11:55 PM 28.4 °F 23.3 °F 23.0 °F 80% 29.90 in 1.2 mi NNW 4.6 mph - N/A   Overcast